Location: Wald
(31.7579°N, 86.6655°W)
Time: 21:09:11
(UTC+00:00)

Cosmos 2082 Rocket - Pass Details

Date: 14 July 2020
Orbit: 834 x 853 km, 71.0° (Epoch: 13 August)

Event Time Altitude Azimuth Distance (km) Brightness Sun altitude
Exits shadow 07:28:19 48° 74° (ENE) 1,100 2.9 -31.9°
Drops below altitude 10° 07:32:58 10° 31° (NNE) 2,483 5.5 -31.5°
Sets 07:35:28 0° 27° (NNE) 3,420 6.5 -31.2°
